TimeMDT,TemperatureF,Dew PointF,Humidity,Sea Level PressureIn,VisibilityMPH,Wind Direction,Wind SpeedMPH,Gust SpeedMPH,PrecipitationIn,Events,Conditions,WindDirDegrees,DateUTC
12:53 AM,37.0,23.0,57,30.05,10.0,Calm,Calm,-,N/A,,Clear,0,2013-04-02 06:53:00
1:53 AM,33.1,23.0,66,30.06,10.0,SW,9.2,-,N/A,,Clear,230,2013-04-02 07:53:00
2:53 AM,35.1,23.0,61,30.04,10.0,SW,10.4,-,N/A,,Clear,220,2013-04-02 08:53:00
3:53 AM,30.0,21.0,69,30.05,10.0,West,5.8,-,N/A,,Clear,270,2013-04-02 09:53:00
4:53 AM,30.9,21.9,69,30.04,10.0,Calm,Calm,-,N/A,,Clear,0,2013-04-02 10:53:00
5:53 AM,30.9,21.0,67,30.04,10.0,Calm,Calm,-,N/A,,Clear,0,2013-04-02 11:53:00
6:53 AM,28.9,21.0,72,30.04,10.0,SE,3.5,-,N/A,,Clear,140,2013-04-02 12:53:00
7:53 AM,32.0,23.0,69,30.06,10.0,WSW,3.5,-,N/A,,Clear,250,2013-04-02 13:53:00
8:53 AM,46.0,25.0,44,30.02,10.0,SSW,12.7,-,N/A,,Clear,200,2013-04-02 14:53:00
9:53 AM,53.1,25.0,34,30.01,10.0,SSW,15.0,-,N/A,,Clear,200,2013-04-02 15:53:00
10:53 AM,57.9,26.1,30,29.99,10.0,SSW,11.5,-,N/A,,Clear,200,2013-04-02 16:53:00
11:53 AM,63.0,26.1,25,29.97,10.0,SW,10.4,-,N/A,,Clear,220,2013-04-02 17:53:00
12:53 PM,66.9,26.1,21,29.94,10.0,WSW,13.8,20.7,N/A,,Clear,250,2013-04-02 18:53:00
1:53 PM,69.1,25.0,19,29.92,10.0,SW,9.2,-,N/A,,Clear,220,2013-04-02 19:53:00
2:53 PM,70.0,26.1,19,29.90,10.0,SSW,11.5,18.4,N/A,,Clear,200,2013-04-02 20:53:00
3:53 PM,71.1,27.0,19,29.88,10.0,SW,15.0,23.0,N/A,,Partly Cloudy,220,2013-04-02 21:53:00
4:53 PM,72.0,25.0,17,29.86,10.0,WSW,17.3,25.3,N/A,,Partly Cloudy,240,2013-04-02 22:53:00
5:53 PM,70.0,27.0,20,29.86,10.0,West,17.3,-,N/A,,Scattered Clouds,270,2013-04-02 23:53:00
6:53 PM,64.9,27.0,24,29.90,10.0,West,16.1,-,N/A,,Clear,260,2013-04-03 00:53:00
7:53 PM,55.9,28.0,34,29.93,10.0,WSW,9.2,-,N/A,,Clear,250,2013-04-03 01:53:00
8:53 PM,52.0,28.0,40,29.91,10.0,WSW,10.4,-,N/A,,Clear,250,2013-04-03 02:53:00
9:53 PM,53.1,27.0,37,29.89,10.0,WSW,13.8,-,N/A,,Clear,250,2013-04-03 03:53:00
10:53 PM,48.0,28.0,46,29.90,10.0,SW,11.5,-,N/A,,Clear,220,2013-04-03 04:53:00
11:53 PM,46.9,28.9,50,29.89,10.0,SW,13.8,-,N/A,,Clear,230,2013-04-03 05:53:00